Kirksville, MO

2:09 AM CDT on August 20, 2017 (GMT -0500)
Kirksville Regional

Weather History for KIRK - May, 2013

Change the Weather History Date:

Thursday, May 16, 2013

  Actual Average Record
Temperature  
Mean Temperature 71 °F 62 °F  
Max Temperature 81 °F 72 °F 91 °F (1944)
Min Temperature 60 °F 52 °F 34 °F (1956)
Degree Days  
Heating Degree Days 0 5  
Month to date heating degree days 158 106  
Since 1 July heating degree days 6004 5796  
Cooling Degree Days 6 2  
Month to date cooling degree days 23 18  
Year to date cooling degree days 33 25  
Growing Degree Days 21 (Base 50)    
Moisture  
Dew Point 63 °F    
Average Humidity 79    
Maximum Humidity 100    
Minimum Humidity 58    
Precipitation  
Precipitation T in 0.14 in 1.37 in (1925)
Month to date precipitation 1.44 2.61  
Year to date precipitation 17.41 11.80  
Sea Level Pressure  
Sea Level Pressure 29.89 in    
Wind  
Wind Speed 6 mph (South)    
Max Wind Speed 25 mph    
Max Gust Speed 30 mph    
Visibility 9 miles    
Events Rain    
T = Trace of Precipitation, MM = Missing Value Source: NWS Daily Summary

Daily Weather History Graph

Daily Weather History Graph

Search for Another Location

Airport or City:

Trip Planner

Search our weather history database for the weather conditions in past years. The results will help you decide how hot, cold, wet, or windy it might be!

Date:

Astronomy

May. 16, 2013 Rise Set
Actual Time 5:53 AM CDT 8:20 PM CDT
Civil Twilight 5:22 AM CDT 8:50 PM CDT
Nautical Twilight 4:44 AM CDT 9:29 PM CDT
Astronomical Twilight 4:02 AM CDT 10:11 PM CDT
Moon 11:27 AM CDT (5/16) 12:41 AM CDT (5/16)
Length of Visible Light 15h 28m
Length of Day
14h 26m
Waxing Crescent, 36% of the Moon is Illuminated
May 16
Waxing Crescent
May 17
First Quarter
May 24
Full
May 31
Last Quarter
Jun 8
New

Hourly Weather History & Observations

Time (CDT) Temp. Heat Index Dew Point Humidity Pressure Visibility Wind Dir Wind Speed Gust Speed Precip Events Conditions
12:55 AM 70.0 °F - 64.9 °F 84% 29.88 in 9.0 mi SSW 4.6 mph - N/A   Partly Cloudy
1:55 AM 66.9 °F - 64.0 °F 90% 29.87 in 7.0 mi West 3.5 mph - N/A   Clear
2:55 AM 66.9 °F - 64.0 °F 90% 29.87 in 7.0 mi West 4.6 mph - N/A   Partly Cloudy
3:55 AM 64.9 °F - 63.0 °F 93% 29.86 in 8.0 mi Calm Calm - N/A   Clear
4:55 AM 62.1 °F - 61.0 °F 96% 29.89 in 5.0 mi South 3.5 mph - N/A   Clear
5:55 AM 63.0 °F - 62.1 °F 97% 29.91 in 4.0 mi SE 3.5 mph - N/A   Overcast
6:55 AM 64.0 °F - 63.0 °F 96% 29.92 in 5.0 mi SSW 3.5 mph - N/A   Overcast
7:55 AM 64.9 °F - 61.0 °F 87% 29.94 in 8.0 mi SSW 6.9 mph - N/A   Overcast
8:55 AM 66.9 °F - 61.0 °F 81% 29.92 in 10.0 mi SSW 6.9 mph - N/A   Overcast
9:21 AM 69.8 °F - 62.6 °F 78% 29.92 in 10.0 mi South 9.2 mph - N/A   Scattered Clouds
9:55 AM 73.0 °F - 63.0 °F 71% 29.91 in 10.0 mi SSW 6.9 mph - N/A   Clear
10:55 AM 75.0 °F - 64.0 °F 69% 29.91 in 10.0 mi South 8.1 mph - N/A   Clear
11:55 AM 78.1 °F - 64.9 °F 64% 29.89 in 10.0 mi South 8.1 mph - N/A   Clear
12:55 PM 78.1 °F - 64.0 °F 62% 29.88 in 10.0 mi South 5.8 mph - N/A   Scattered Clouds
1:55 PM 78.8 °F - 64.4 °F 61% 29.88 in 10.0 mi South 6.9 mph - N/A   Mostly Cloudy
2:55 PM 79.0 °F - 64.0 °F 60% 29.86 in 10.0 mi SE 8.1 mph - N/A   Mostly Cloudy
3:55 PM 80.1 °F 81.7 °F 64.0 °F 58% 29.84 in 10.0 mi SE 9.2 mph - N/A   Partly Cloudy
4:55 PM 75.2 °F - 64.4 °F 69% 29.85 in 10.0 mi SSE 3.5 mph - N/A Rain Light Rain
5:55 PM 78.1 °F - 66.9 °F 68% 29.83 in 10.0 mi SSE 11.5 mph 21.9 mph N/A   Partly Cloudy
6:55 PM 71.1 °F - 63.0 °F 75% 29.85 in 10.0 mi SSW 6.9 mph - N/A   Partly Cloudy
7:55 PM 69.1 °F - 63.0 °F 81% 29.86 in 10.0 mi SSW 4.6 mph - N/A   Clear
8:55 PM 66.0 °F - 62.1 °F 87% 29.88 in 10.0 mi Calm Calm - N/A   Clear
9:55 PM 64.0 °F - 61.0 °F 90% 29.91 in 10.0 mi SE 3.5 mph - N/A   Clear
10:55 PM 62.1 °F - 60.1 °F 93% 29.91 in 10.0 mi SSE 6.9 mph - N/A   Clear
11:55 PM 64.0 °F - 61.0 °F 90% 29.89 in 10.0 mi South 8.1 mph - N/A   Clear